Simultaneous Nadir Overpasses (SNOs) Predictions

Prediction of SNOs between METOP-A and TERRA Satellite Orbit:

Table of predicted SNOs for the next 14.0 days since TLE Epoch: 12/28/2019
Index Date (METOP-A) Time (METOP-A) Lat,Lon (METOP-A) SZA (METOP-A ) Date (TERRA) Time (TERRA) Lat,Lon (TERRA) SZA (TERRA ) Distance(km) Time Diff (sec)
1 12/29/2019 17:59:41 81.44, -39.94 107.47 12/29/2019 18:00:08 81.45, -39.93 107.49 1.06 27
2 12/29/2019 18:50:21 -81.43, 127.74 72.50 12/29/2019 18:49:35 -81.44, 127.55 72.54 3.33 46
3 01/01/2020 13:34:03 81.44, 26.40 107.23 01/01/2020 13:34:22 81.44, 26.46 107.25 1.25 19
4 01/01/2020 14:24:43 -81.43,-165.89 72.74 01/01/2020 14:23:49 -81.44,-166.04 72.77 2.57 54
5 01/04/2020 09:08:26 81.44, 92.72 106.93 01/04/2020 09:08:37 81.44, 92.81 106.95 1.56 11
6 01/04/2020 09:59:06 -81.43, -99.54 73.04 01/04/2020 09:58:04 -81.44, -99.66 73.07 2.03 62
7 01/07/2020 04:42:49 81.44, 159.03 106.57 01/07/2020 04:42:52 81.43, 159.13 106.58 1.83 3
8 01/07/2020 05:33:29 -81.43, -33.21 73.39 01/07/2020 05:32:19 -81.43, -33.31 73.44 1.79 70
9 01/09/2020 23:26:30 -81.44, 58.21 73.82 01/09/2020 23:27:39 -81.44, 58.08 73.80 2.29 69




NCC Satellite Simultaneous Nadir Overpasses (SNOs) Prediction Service
